EW5678 Weather Reports


Display with metric or nautical units.
time (UTC)temp
F
wind
direction
speed
MPH
gust
MPH
rain 1hr
in
rain 24hr
in
rain mn
in
humidity
%
barometer
mb
20260831101544 67 40 11.0 17.0 0.00 0.02 0.02 85 1008.5
20260831100644 68 42 13.0 19.0 0.00 0.02 0.02 85 1008.5
20260831095744 68 40 12.0 19.0 0.00 0.02 0.02 85 1008.4
20260831094844 68 44 12.0 18.0 0.00 0.02 0.02 86 1008.3
20260831093945 68 41 14.0 23.0 0.00 0.02 0.02 85 1008.4
20260831092144 68 38 10.0 14.0 0.00 0.02 0.02 86 1008.4
20260831091245 68 38 11.0 16.0 0.00 0.02 0.02 85 1008.3
20260831090345 68 37 12.0 18.0 0.00 0.02 0.02 85 1008.2
20260831085444 69 38 15.0 19.0 0.00 0.02 0.02 85 1008.2
20260831084545 69 35 15.0 19.0 0.00 0.02 0.02 84 1008.2
20260831082745 69 33 15.0 19.0 0.00 0.02 0.02 84 1008.3
20260831081844 69 34 14.0 18.0 0.00 0.02 0.02 84 1008.3
20260831080944 69 35 15.0 18.0 0.00 0.02 0.02 84 1008.2
20260831075145 69 37 14.0 19.0 0.00 0.02 0.02 85 1008.1
20260831074245 69 37 13.0 17.0 0.00 0.02 0.02 87 1008.3
20260831073344 69 30 11.0 13.0 0.00 0.02 0.02 90 1008.4
20260831072444 69 25 11.0 12.0 0.00 0.02 0.02 90 1008.4
20260831070644 70 26 12.0 15.0 0.00 0.02 0.02 90 1008.2
20260831065744 70 32 12.0 14.0 0.00 0.02 0.02 91 1008.2
20260831064845 70 21 11.0 16.0 0.00 0.02 0.02 90 1008.2
20260831063945 71 355 13.0 19.0 0.00 0.02 0.02 88 1008.1
20260831062144 71 331 11.0 14.0 0.00 0.02 0.02 88 1008.2
20260831061245 71 327 11.0 13.0 0.00 0.02 0.02 87 1008.2
20260831060344 71 324 12.0 13.0 0.00 0.02 0.02 88 1008.1
20260831054545 71 316 8.0 12.0 0.00 0.02 0.02 88 1008.1
20260831053644 72 319 12.0 15.0 0.00 0.02 0.02 87 1008.0
20260831052744 72 322 11.0 15.0 0.00 0.02 0.02 86 1008.0
20260831050944 72 320 14.0 17.0 0.00 0.02 0.02 86 1008.0
20260831050045 72 321 14.0 17.0 0.00 0.02 0.02 86 1007.9
20260831045145 72 325 14.0 17.0 0.00 0.02 0.02 87 1007.9
20260831044245 72 320 10.0 15.0 0.00 0.02 0.02 89 1007.9
20260831043344 72 302 12.0 15.0 0.00 0.02 0.02 90 1007.9
20260831042444 72 296 12.0 16.0 0.00 0.02 0.02 90 1007.7
20260831041545 72 295 14.0 18.0 0.00 0.02 0.02 89 1007.7
20260831040644 72 302 12.0 18.0 0.00 0.02 0.02 90 1007.7
20260831035744 72 304 14.0 18.0 0.00 0.02 0.02 90 1007.7
20260831034844 72 306 11.0 18.0 0.00 0.02 0.02 88 1007.6
20260831033944 72 303 8.0 12.0 0.00 0.02 0.02 90 1007.8
20260831033044 72 299 8.0 10.0 0.00 0.02 0.02 89 1007.9
20260831032146 72 295 9.0 12.0 0.00 0.02 0.02 89 1007.9
20260831031244 72 294 11.0 15.0 0.00 0.02 0.02 89 1008.1
20260831030345 72 293 10.0 14.0 0.00 0.02 0.02 90 1008.2
20260831025444 72 289 11.0 14.0 0.01 0.02 0.02 89 1008.4
20260831024544 72 295 11.0 15.0 0.01 0.02 0.02 91 1008.3
20260831023644 72 299 11.0 13.0 0.01 0.02 0.02 92 1008.4
20260831022744 72 297 12.0 16.0 0.01 0.02 0.02 91 1008.3
20260831021844 72 291 13.0 17.0 0.02 0.02 0.02 92 1008.3
20260831020945 73 284 12.0 17.0 0.02 0.02 0.02 92 1008.4
20260831020046 72 279 10.0 13.0 0.01 0.01 0.01 92 1008.4
20260831014244 73 271 6.0 14.0 0.01 0.01 0.01 92 1008.5
20260831013344 72 246 6.0 14.0 0.01 0.01 0.01 92 1008.4
20260831012444 72 237 7.0 12.0 0.00 0.00 0.00 93 1008.2
20260831011544 72 230 10.0 15.0 0.00 0.00 0.00 93 1008.2
20260831010644 72 229 10.0 14.0 0.00 0.00 0.00 92 1008.1
20260831005745 72 225 10.0 16.0 0.00 0.00 0.00 92 1008.1
20260831004845 73 221 10.0 16.0 0.00 0.00 0.00 91 1007.9
20260831003944 73 223 10.0 17.0 0.00 0.00 0.00 91 1007.7
20260831002147 73 218 10.0 16.0 0.00 0.00 0.00 90 1007.6
20260831001244 72 218 9.0 18.0 0.00 0.00 0.00 90 1007.5
20260831000344 72 222 10.0 16.0 0.00 0.00 0.00 90 1007.4
20260830235444 72 220 10.0 17.0 0.00 0.00 0.00 90 1007.3
20260830234544 73 215 9.0 17.0 0.00 0.00 0.00 89 1007.2
20260830233646 73 215 10.0 17.0 0.00 0.00 0.00 89 1007.1
20260830231845 73 220 9.0 17.0 0.00 0.00 0.00 88 1007.2
20260830230944 73 215 9.0 17.0 0.00 0.00 0.00 88 1007.3
20260830230045 73 213 7.0 15.0 0.00 0.00 0.00 88 1007.3
20260830225144 73 218 8.0 15.0 0.00 0.00 0.00 87 1007.2
20260830224244 73 219 7.0 14.0 0.00 0.00 0.00 87 1007.3
20260830223344 73 221 8.0 16.0 0.00 0.00 0.00 86 1007.5
20260830221544 73 216 8.0 15.0 0.00 0.00 0.00 86 1007.6
20260830215744 74 205 7.0 17.0 0.00 0.00 0.00 84 1007.7
20260830214844 74 215 8.0 15.0 0.00 0.00 0.00 83 1007.6
20260830213944 74 208 6.0 13.0 0.00 0.00 0.00 83 1007.6
20260830213044 74 206 6.0 13.0 0.00 0.00 0.00 82 1007.4
20260830212144 74 210 6.0 12.0 0.00 0.00 0.00 82 1007.7
20260830211244 74 211 6.0 13.0 0.00 0.00 0.00 81 1007.7
20260830205444 74 213 6.0 13.0 0.00 0.00 0.00 80 1007.9
20260830203645 74 218 9.0 17.0 0.00 0.00 0.00 80 1007.8
20260830202744 74 222 9.0 15.0 0.00 0.00 0.00 80 1007.8
20260830201844 74 213 8.0 14.0 0.00 0.00 0.00 80 1008.0
20260830200944 75 217 9.0 18.0 0.00 0.00 0.00 78 1007.9
20260830200044 76 229 7.0 17.0 0.00 0.00 0.00 76 1008.0
20260830195144 76 217 7.0 15.0 0.00 0.00 0.00 75 1008.2
20260830194244 76 228 9.0 16.0 0.00 0.00 0.00 75 1008.2
20260830193344 76 228 8.0 18.0 0.00 0.00 0.00 74 1008.4
20260830192444 76 230 10.0 18.0 0.00 0.00 0.00 75 1008.4
20260830191544 76 236 10.0 18.0 0.00 0.00 0.00 73 1008.6
20260830190644 76 234 7.0 17.0 0.00 0.00 0.00 72 1008.8
20260830185744 76 225 9.0 18.0 0.00 0.00 0.00 73 1008.8
20260830184844 76 229 9.0 16.0 0.00 0.00 0.00 71 1008.9
20260830183944 76 225 9.0 18.0 0.00 0.00 0.00 72 1009.0
20260830183044 76 218 6.0 14.0 0.00 0.00 0.00 71 1009.1
20260830182144 76 225 7.0 15.0 0.00 0.00 0.00 69 1009.3
20260830181244 76 229 8.0 14.0 0.00 0.00 0.00 67 1009.4
20260830180344 76 226 11.0 18.0 0.00 0.00 0.00 66 1009.5
20260830175445 76 225 11.0 20.0 0.00 0.00 0.00 64 1009.5
20260830173644 77 224 7.0 16.0 0.00 0.00 0.00 63 1009.4
20260830172744 77 220 9.0 19.0 0.00 0.00 0.00 62 1009.5
20260830171844 77 225 11.0 19.0 0.00 0.00 0.00 64 1009.5
20260830165144 77 235 8.0 15.0 0.00 0.00 0.00 62 1010.0
20260830164244 77 261 8.0 16.0 0.00 0.00 0.00 59 1010.1
20260830163344 77 261 8.0 17.0 0.00 0.00 0.00 58 1010.1
20260830162444 77 263 6.0 13.0 0.00 0.00 0.00 56 1010.2
20260830161544 76 238 8.0 16.0 0.00 0.00 0.00 56 1010.2
20260830155744 76 237 7.0 13.0 0.00 0.00 0.00 54 1010.2
20260830154844 76 270 7.0 14.0 0.00 0.00 0.00 52 1010.5
20260830153944 76 230 8.0 16.0 0.00 0.00 0.00 56 1010.7
20260830153044 75 229 11.0 18.0 0.00 0.00 0.00 55 1010.7
20260830151244 75 233 9.0 18.0 0.00 0.00 0.00 55 1010.7
20260830150344 75 238 9.0 18.0 0.00 0.00 0.00 59 1010.8
20260830144544 75 227 6.0 15.0 0.00 0.00 0.00 62 1011.0
20260830143644 74 229 11.0 17.0 0.00 0.00 0.00 63 1011.0
20260830142744 74 222 8.0 15.0 0.00 0.00 0.00 64 1011.0
20260830140944 73 225 6.0 14.0 0.00 0.00 0.00 66 1011.4
20260830140044 73 226 6.0 14.0 0.00 0.00 0.00 68 1011.5
20260830135144 72 238 8.0 15.0 0.00 0.00 0.00 66 1011.6
20260830134244 72 232 7.0 12.0 0.00 0.00 0.00 66 1011.5
20260830131544 72 249 6.0 10.0 0.00 0.00 0.00 67 1011.7
20260830130644 71 251 6.0 11.0 0.00 0.00 0.00 69 1011.8
20260830125744 71 261 7.0 11.0 0.00 0.00 0.00 70 1011.8
20260830124844 70 270 6.0 10.0 0.00 0.00 0.00 70 1011.9
20260830123944 70 268 6.0 10.0 0.00 0.00 0.00 71 1011.9
20260830122144 69 275 7.0 12.0 0.00 0.00 0.00 71 1012.0
20260830115444 69 273 8.0 13.0 0.00 0.00 0.00 72 1011.9
20260830114544 68 265 9.0 14.0 0.00 0.00 0.00 72 1011.9
20260830113644 68 270 9.0 13.0 0.00 0.00 0.00 73 1012.0
20260830112744 68 270 9.0 15.0 0.00 0.00 0.00 73 1011.8
20260830111844 68 270 11.0 17.0 0.00 0.00 0.00 73 1011.8
20260830110944 68 274 10.0 17.0 0.00 0.00 0.00 71 1011.6
20260830110044 67 273 10.0 15.0 0.00 0.00 0.00 74 1011.6
20260830105144 68 273 11.0 16.0 0.00 0.00 0.00 73 1011.6
20260830104244 68 278 14.0 17.0 0.00 0.00 0.00 71 1011.5
20260830103344 68 273 13.0 19.0 0.00 0.00 0.00 73 1011.6